When you browse on this site, cookies collect data to enhance your experience and personalize the content and advertising you see.
Visit our Privacy Policy to learn more. By continuing to use the site, you agree to this use of cookies and data.
  • In United Kingdom
  • List of Countries
  • For 7 days
  • Water Temperature
  • Satellite Maps
  • Weather Map
  • Weather Widgets
  • user-avatar
    Login

    Hourly Weather Haradok

    Today, 25 May, Saturday

    Time Temperature Precipitation Wind Pressure Humidity
    00:00 +15°C° 0 mm 1 mps 743 mmHg 97%
    01:00 +14°C° 0 mm 1 mps 742 mmHg 97%
    02:00 +14°C° 0 mm 1 mps 742 mmHg 97%
    03:00 +14°C° 0.2 mm 1 mps 742 mmHg 97%
    04:00 +15°C° 0.2 mm 1 mps 742 mmHg 97%
    05:00 +15°C° 0.2 mm 1 mps 742 mmHg 97%
    06:00 +16°C° 0.2 mm 1 mps 742 mmHg 93%
    07:00 +18°C° 0.2 mm 1 mps 742 mmHg 90%
    08:00 +18°C° 0 mm 1 mps 742 mmHg 89%
    09:00 +19°C° 0.2 mm 1 mps 742 mmHg 83%
    10:00 +19°C° 0.2 mm 2 mps 742 mmHg 78%
    11:00 +20°C° 0.2 mm 2 mps 742 mmHg 73%
    12:00 +20°C° 0.7 mm 2 mps 741 mmHg 72%
    13:00 +21°C° 0.7 mm 3 mps 741 mmHg 71%
    14:00 +21°C° 0.7 mm 3 mps 741 mmHg 70%
    15:00 +21°C° 0.3 mm 3 mps 741 mmHg 67%
    16:00 +21°C° 0.3 mm 3 mps 741 mmHg 64%
    17:00 +21°C° 0.3 mm 3 mps 741 mmHg 61%
    18:00 +20°C° 0 mm 3 mps 740 mmHg 66%
    19:00 +18°C° 0 mm 3 mps 740 mmHg 72%
    20:00 +16°C° 0 mm 3 mps 740 mmHg 77%
    21:00 +14°C° 0 mm 3 mps 741 mmHg 81%
    22:00 +13°C° 0 mm 3 mps 741 mmHg 85%
    23:00 +12°C° 0 mm 3 mps 741 mmHg 90%

    Tomorrow, 26 May, Sunday

    Time Temperature Precipitation Wind Pressure Humidity
    00:00 +11°C° 0 mm 3 mps 741 mmHg 89%
    01:00 +11°C° 0 mm 3 mps 742 mmHg 89%
    02:00 +10°C° 0 mm 3 mps 742 mmHg 88%
    03:00 +10°C° 0 mm 3 mps 742 mmHg 90%
    04:00 +9°C° 0 mm 2 mps 742 mmHg 91%
    05:00 +9°C° 0 mm 2 mps 742 mmHg 92%
    06:00 +10°C° 0 mm 2 mps 742 mmHg 85%
    07:00 +13°C° 0 mm 2 mps 742 mmHg 77%
    08:00 +15°C° 0 mm 2 mps 742 mmHg 70%
    09:00 +14°C° 0 mm 3 mps 742 mmHg 68%
    10:00 +16°C° 0 mm 3 mps 742 mmHg 65%
    11:00 +16°C° 0 mm 3 mps 742 mmHg 63%
    12:00 +17°C° 0 mm 4 mps 742 mmHg 60%
    13:00 +18°C° 0 mm 4 mps 742 mmHg 56%
    14:00 +19°C° 0 mm 4 mps 742 mmHg 53%
    15:00 +19°C° 0 mm 4 mps 741 mmHg 54%
    16:00 +19°C° 0 mm 5 mps 741 mmHg 55%
    17:00 +19°C° 0 mm 5 mps 741 mmHg 57%
    18:00 +17°C° 0 mm 4 mps 741 mmHg 63%
    19:00 +15°C° 0 mm 4 mps 741 mmHg 70%
    20:00 +13°C° 0 mm 4 mps 741 mmHg 77%
    21:00 +12°C° 0 mm 3 mps 742 mmHg 81%
    22:00 +11°C° 0 mm 3 mps 742 mmHg 84%
    23:00 +10°C° 0 mm 3 mps 742 mmHg 88%

    Day after tomorrow, 27 May, Monday

    Time Temperature Precipitation Wind Pressure Humidity
    00:00 +9°C° 0 mm 3 mps 742 mmHg 89%
    01:00 +9°C° 0 mm 3 mps 742 mmHg 91%
    02:00 +9°C° 0 mm 3 mps 742 mmHg 92%
    03:00 +9°C° 0 mm 3 mps 742 mmHg 90%
    04:00 +10°C° 0 mm 4 mps 742 mmHg 88%
    05:00 +10°C° 0 mm 4 mps 742 mmHg 86%
    06:00 +11°C° 0 mm 4 mps 742 mmHg 83%
    07:00 +12°C° 0 mm 4 mps 742 mmHg 80%
    08:00 +13°C° 0 mm 5 mps 743 mmHg 77%
    09:00 +13°C° 0 mm 4 mps 743 mmHg 77%
    10:00 +14°C° 0 mm 4 mps 743 mmHg 77%
    11:00 +15°C° 0 mm 4 mps 743 mmHg 77%
    12:00 +17°C° 0 mm 4 mps 743 mmHg 74%
    13:00 +17°C° 0 mm 5 mps 743 mmHg 71%
    14:00 +20°C° 0 mm 5 mps 743 mmHg 67%
    15:00 +20°C° 0.3 mm 4 mps 743 mmHg 71%
    16:00 +20°C° 0.3 mm 4 mps 743 mmHg 75%
    17:00 +20°C° 0.3 mm 4 mps 743 mmHg 78%
    18:00 +19°C° 1.5 mm 4 mps 743 mmHg 82%
    19:00 +18°C° 1.5 mm 4 mps 743 mmHg 86%
    20:00 +17°C° 1.5 mm 4 mps 743 mmHg 91%
    21:00 +16°C° 0.3 mm 3 mps 743 mmHg 92%
    22:00 +16°C° 0.3 mm 3 mps 743 mmHg 94%
    23:00 +14°C° 0.3 mm 3 mps 743 mmHg 96%

    28 May, Tuesday

    Time Temperature Precipitation Wind Pressure Humidity
    00:00 +15°C° 0 mm 2 mps 743 mmHg 96%
    01:00 +14°C° 0 mm 2 mps 744 mmHg 96%
    02:00 +14°C° 0 mm 2 mps 744 mmHg 97%
    03:00 +14°C° 0 mm 2 mps 744 mmHg 97%
    04:00 +14°C° 0 mm 2 mps 744 mmHg 97%
    05:00 +14°C° 0 mm 1 mps 745 mmHg 97%
    06:00 +16°C° 0 mm 1 mps 745 mmHg 92%
    07:00 +18°C° 0 mm 1 mps 745 mmHg 87%
    08:00 +20°C° 0 mm 1 mps 746 mmHg 81%
    09:00 +21°C° 0 mm 1 mps 746 mmHg 76%
    10:00 +22°C° 0 mm 1 mps 745 mmHg 70%
    11:00 +24°C° 0 mm 1 mps 745 mmHg 65%
    12:00 +24°C° 0.4 mm 2 mps 745 mmHg 67%
    13:00 +24°C° 0.4 mm 3 mps 745 mmHg 69%
    14:00 +24°C° 0.4 mm 3 mps 744 mmHg 71%
    15:00 +22°C° 0.5 mm 3 mps 744 mmHg 77%
    16:00 +21°C° 0.5 mm 4 mps 744 mmHg 83%
    17:00 +20°C° 0.5 mm 4 mps 743 mmHg 89%
    18:00 +20°C° 1 mm 4 mps 743 mmHg 89%
    19:00 +20°C° 1 mm 4 mps 743 mmHg 89%
    20:00 +20°C° 1 mm 4 mps 743 mmHg 89%
    21:00 +19°C° 0.5 mm 4 mps 743 mmHg 91%
    22:00 +19°C° 0.5 mm 3 mps 743 mmHg 92%
    23:00 +18°C° 0.5 mm 3 mps 743 mmHg 94%

    29 May, Wednesday

    Time Temperature Precipitation Wind Pressure Humidity
    00:00 +18°C° 0 mm 3 mps 743 mmHg 94%
    01:00 +18°C° 0 mm 4 mps 743 mmHg 94%
    02:00 +17°C° 0 mm 4 mps 743 mmHg 94%
    03:00 +17°C° 0 mm 4 mps 742 mmHg 94%
    04:00 +17°C° 0 mm 4 mps 742 mmHg 94%
    05:00 +17°C° 0 mm 4 mps 742 mmHg 93%
    06:00 +19°C° 0 mm 5 mps 742 mmHg 88%
    07:00 +20°C° 0 mm 5 mps 742 mmHg 82%
    08:00 +21°C° 0 mm 6 mps 742 mmHg 76%
    09:00 +22°C° 0 mm 6 mps 742 mmHg 71%
    10:00 +23°C° 0 mm 6 mps 742 mmHg 66%
    11:00 +24°C° 0 mm 6 mps 743 mmHg 62%
    12:00 +26°C° 0 mm 6 mps 742 mmHg 60%
    13:00 +27°C° 0 mm 6 mps 742 mmHg 59%
    14:00 +28°C° 0 mm 6 mps 742 mmHg 58%
    15:00 +27°C° 0.2 mm 6 mps 742 mmHg 61%
    16:00 +27°C° 0.2 mm 6 mps 742 mmHg 65%
    17:00 +27°C° 0.2 mm 6 mps 742 mmHg 68%
    18:00 +25°C° 0.8 mm 5 mps 742 mmHg 75%
    19:00 +22°C° 0.8 mm 4 mps 742 mmHg 81%
    20:00 +20°C° 0.8 mm 4 mps 742 mmHg 88%
    21:00 +20°C° 0.1 mm 4 mps 742 mmHg 89%
    22:00 +19°C° 0.1 mm 4 mps 742 mmHg 91%
    23:00 +19°C° 0.1 mm 4 mps 742 mmHg 92%

    30 May, Thursday

    Time Temperature Precipitation Wind Pressure Humidity
    00:00 +18°C° 0.2 mm 3 mps 743 mmHg 94%
    01:00 +17°C° 0.2 mm 3 mps 743 mmHg 95%
    02:00 +17°C° 0.2 mm 2 mps 744 mmHg 97%
    03:00 +17°C° 0 mm 2 mps 744 mmHg 97%
    04:00 +16°C° 0 mm 3 mps 745 mmHg 96%
    05:00 +16°C° 0 mm 3 mps 745 mmHg 96%
    06:00 +16°C° 0 mm 3 mps 746 mmHg 94%
    07:00 +16°C° 0 mm 3 mps 747 mmHg 92%
    08:00 +16°C° 0 mm 3 mps 747 mmHg 91%
    09:00 +17°C° 0 mm 3 mps 748 mmHg 87%
    10:00 +17°C° 0 mm 3 mps 748 mmHg 84%
    11:00 +18°C° 0 mm 3 mps 749 mmHg 81%
    12:00 +18°C° 0 mm 3 mps 749 mmHg 76%
    13:00 +19°C° 0 mm 4 mps 749 mmHg 72%
    14:00 +20°C° 0 mm 4 mps 750 mmHg 68%
    15:00 +20°C° 0 mm 3 mps 750 mmHg 66%
    16:00 +20°C° 0 mm 3 mps 750 mmHg 64%
    17:00 +21°C° 0 mm 2 mps 750 mmHg 62%
    18:00 +20°C° 0 mm 2 mps 750 mmHg 65%
    19:00 +19°C° 0 mm 2 mps 751 mmHg 68%
    20:00 +18°C° 0 mm 2 mps 751 mmHg 70%
    21:00 +17°C° 0 mm 2 mps 751 mmHg 70%
    22:00 +16°C° 0 mm 2 mps 751 mmHg 70%
    23:00 +14°C° 0 mm 3 mps 751 mmHg 70%
    Show more